Location: Unspecified
(0.0000°N, 0.0000°E)
Time: 05:27:57
(UTC+00:00)

deb Centaur AC-2 - Pass Details

Date: 10 August 2024
Orbit: 582 x 982 km, 29.9° (Epoch: 09 September)

Event Time Altitude Azimuth Distance (km) Brightness Sun altitude
Exits shadow 05:10:04 14° 280° (W) 2,393 ? -13.3°
Maximum altitude 05:14:20 27° 329° (NNW) 1,713 ? -12.3°
Drops below altitude 10° 05:19:22 10° 24° (NNE) 2,513 ? -11.1°
Sets 05:22:14 0° 37° (NE) 3,377 ? -10.4°
